User: anonymous   Login
Location: Moonridge Observatory
(39.2268°N, 77.7914°W)
Time: 19:23:41
(UTC-04:00)
Language:

CZ-2C R/B - Orbit

View from above orbital plane
View from above orbital plane
View from above satellite
View from above satellite

Ground track
Ground track

The orbit data is extracted from the following two-line orbital elements,

1 28480U 04046B   16238.91224718 -.00000013 +00000-0 +10704-4 0  9991
2 28480 098.1883 348.2307 0142374 016.4880 090.1990 14.25603992612149
Epoch (UTC): 25 August 2016 21:53:38
Eccentricity: 0.0142374
inclination: 98.1883°
perigee height: 704 km
apogee height: 909 km
right ascension of ascending node: 348.2307°
argument of perigee: 16.4880°
revolutions per day: 14.25603992
mean anomaly at epoch: 90.1990°
orbit number at epoch: 61214

The dashed part of the orbit path shows where the satellite is in the earth's shadow,  

DLR